Weather Roundup
Issued by NWS Chicago, IL

Home | Current Version | Previous Version | Graphics & Text | Print | Product List | Glossary On
Versions: 1 2 3 4 5 6 7 8 9 10 11 12 13 14 15 16 17 18 19 20 21 22 23 24 25 26 27 28 29 30 31 32 33 34 35 36 37 38 39 40 41 42 43 44 45 46 47 48 49 50
000
NZUS59 KLOT 282108
HRRLOT

CHICAGO AREA WEATHER ROUNDUP
NATIONAL WEATHER SERVICE CHICAGO/ROMEOVILLE IL
400 PM CDT FRI AUG 28 2015

NOTE: "FAIR" INDICATES FEW OR NO CLOUDS BELOW 12,000 FEET WITH NO
SIGNIFICANT WEATHER AND/OR OBSTRUCTIONS TO VISIBILITY.

* THESE STATIONS ARE NOT UNDER NWS QUALITY CONTROL. THEY ALSO MAY NOT
  REPORT WEATHER SUCH AS PRECIPITATION OR FOG.

ILZ005-006-012>014-019>023-282200-
NORTHEAST ILLINOIS

CITY           SKY/WX    TMP DP  RH WIND       PRES   REMARKS
OHARE          CLOUDY    72  59  63 S5        30.08F
MIDWAY         CLOUDY    75  59  57 S6        30.08F
AURORA         CLOUDY    72  63  73 SE6       30.08F
LANSING*       CLOUDY    73  63  70 CALM      30.10F
JOLIET*        CLOUDY    74  65  71 E6        30.08F
WAUKEGAN       CLOUDY    70  60  70 S6        30.09F
DUPAGE AIRPORT CLOUDY    71  61  70 SE3       30.08F
WHEELING       CLOUDY    72  58  61 S5        30.10F
KANKAKEE*      CLOUDY    75  63  65 CALM      30.09F
MORRIS*        CLOUDY    72  65  78 E6        30.06F
LEWIS AIRPORT* CLOUDY    72  62  70 SE5       30.08F
NORTHERLY IS     N/A     73  58  59 E3          N/A
$$

WIZ051-052-058>065-066-070>072-282200-
SOUTHEAST WISCONSIN

CITY           SKY/WX    TMP DP  RH WIND       PRES   REMARKS
MILWAUKEE      CLOUDY    71  61  70 SE6       30.09F
KENOSHA*       CLOUDY    71  61  70 S5        30.10F
RACINE*        CLOUDY    69  59  70 S5        30.11F
BURLINGTON     CLOUDY    68  60  76 CALM      30.10S
WAUKESHA       SUNNY     68  61  77 CALM      30.11F
WEST BEND      CLOUDY    68  59  73 CALM      30.10F
$$

INZ001>003-010>013-019-020-282200-
NORTHWEST INDIANA

CITY           SKY/WX    TMP DP  RH WIND       PRES   REMARKS
GARY*          CLOUDY    75  57  53 VRB5      30.10F
MICHIGAN CITY* NOT AVBL
RENSSELAER*    NOT AVBL
VALPARAISO     CLOUDY    76  61  59 CALM      30.11F
$$

LMZ740>746-282200-
SOUTHERN LAKE MICHIGAN

STATION/POSITION TIME  SKY/WX   TEMP WIND        PRES    VSBY
                                AIR  DIR/SP/G
                 (UTC)          (F)  (DEG/KT/KT) (MB)    (MI)
HARRISON CRIB    2000            72  190/  6/  7   N/A
BURNHAM HARBOR   2100            71   CALM  /  7   N/A
CALUMET HARBOR   NOT AVBL
BURNS HARBOR     NOT AVBL
MICHIGAN CITY    2000            73  260/  4/  4   N/A
$$

ABBREVIATIONS USED IN REMARKS
   TC - TEMPERATURE IN CELSIUS
  WCI - WIND CHILL INDEX
   HX - HEAT INDEX
  VSB - VISIBILITY
$$


USA.gov is the U.S. government's official web portal to all federal, state and local government web resources and services.